Location: Elaine Barite Prospect
(34.1431°N, 106.7922°W)
Time: 11:34:59
(UTC+00:00)

NOAA 12 - Pass Details

Date: 13 December 2025
Orbit: 792 x 813 km, 98.6° (Epoch: 15 January)

Event Time Altitude Azimuth Distance (km) Brightness Sun altitude
Rises 12:20:56 0° 9° (N) 3,319 7.2 -20.8°
Reaches altitude 10° 12:23:17 10° 7° (N) 2,382 6.5 -20.3°
Maximum altitude 12:28:30 69° 285° (WNW) 853 4.0 -19.3°
Drops below altitude 10° 12:33:40 10° 203° (SSW) 2,356 6.4 -18.2°
Sets 12:35:59 0° 201° (SSW) 3,279 7.2 -17.8°
